Weather History for Grand Rapids, MN

Change the Weather History Date:

Saturday, September 1, 2012

  Actual Average Record
Temperature  
Mean Temperature 63 °F -  
Max Temperature 78 °F 72 °F 93 °F (1921)
Min Temperature 48 °F 50 °F 29 °F (1935)
Degree Days  
Heating Degree Days 2    
Growing Degree Days 13 (Base 50)    
Moisture  
Dew Point 48 °F    
Average Humidity 60    
Maximum Humidity 93    
Minimum Humidity 30    
Precipitation  
Precipitation 0.00 in - - ()
Sea Level Pressure  
Sea Level Pressure 30.15 in    
Wind  
Wind Speed 4 mph (SE)    
Max Wind Speed 13 mph    
Max Gust Speed 18 mph    
Visibility 10 miles    
Events      
Averages and records for this station are not official NWS values.
T = Trace of Precipitation, MM = Missing Value Source: NWS Daily Summary

Daily Weather History Graph

Daily Weather History Graph

Search for Another Location

Airport:

Trip Planner

Search our weather history database for the weather conditions in past years. The results will help you decide how hot, cold, wet, or windy it might be!

Date:

Astronomy

Sep. 01, 2012 Rise Set
Actual Time 6:33 AM CDT 7:52 PM CDT
Civil Twilight 6:02 AM CDT 8:24 PM CDT
Nautical Twilight 5:23 AM CDT 9:02 PM CDT
Astronomical Twilight 4:42 AM CDT 9:43 PM CDT
Moon 7:58 PM CDT (9/1) 7:51 AM CDT (9/1)
Length of Visible Light 14h 22m
Length of Day
13h 19m
Full, 99% of the Moon is Illuminated
Sep 1
Full
Sep 8
Last Quarter
Sep 15
New
Sep 22
First Quarter
Sep 29
Full

Hourly Weather History & Observations

Time (CDT) Temp. Dew Point Humidity Pressure Visibility Wind Dir Wind Speed Gust Speed Precip Events Conditions
12:15 AM 55.4 °F 50.0 °F 82% 30.18 in 10.0 mi Calm Calm - N/A   Clear
12:35 AM 53.6 °F 50.0 °F 88% 30.18 in 10.0 mi Calm Calm - N/A   Clear
12:55 AM 53.6 °F 50.0 °F 88% 30.18 in 10.0 mi Calm Calm - N/A   Clear
1:15 AM 53.6 °F 48.2 °F 82% 30.18 in 10.0 mi Calm Calm - N/A   Clear
1:35 AM 53.6 °F 48.2 °F 82% 30.18 in 10.0 mi Calm Calm - N/A   Clear
1:55 AM 53.6 °F 48.2 °F 82% 30.18 in 10.0 mi Calm Calm - N/A   Clear
2:15 AM 51.8 °F 48.2 °F 88% 30.18 in 10.0 mi SE 3.5 mph - N/A   Clear
2:35 AM 51.8 °F 48.2 °F 88% 30.19 in 10.0 mi Calm Calm - N/A   Clear
2:55 AM 50.0 °F 46.4 °F 87% 30.19 in 10.0 mi SE 3.5 mph - N/A   Clear
3:15 AM 51.8 °F 46.4 °F 82% 30.20 in 10.0 mi South 3.5 mph - N/A   Clear
3:35 AM 50.0 °F 46.4 °F 87% 30.20 in 10.0 mi Calm Calm - N/A   Clear
3:55 AM 50.0 °F 46.4 °F 87% 30.20 in 10.0 mi South 3.5 mph - N/A   Clear
4:15 AM 50.0 °F 46.4 °F 87% 30.20 in 10.0 mi Calm Calm - N/A   Clear
4:35 AM 50.0 °F 46.4 °F 87% 30.20 in 10.0 mi Calm Calm - N/A   Clear
4:55 AM 48.2 °F 46.4 °F 93% 30.20 in 10.0 mi Calm Calm - N/A   Clear
5:15 AM 48.2 °F 44.6 °F 87% 30.20 in 10.0 mi Calm Calm - N/A   Clear
5:35 AM 48.2 °F 46.4 °F 93% 30.20 in 10.0 mi ESE 3.5 mph - N/A   Clear
5:55 AM 53.6 °F 44.6 °F 72% 30.20 in 10.0 mi SE 3.5 mph - N/A   Clear
6:15 AM 51.8 °F 46.4 °F 82% 30.20 in 10.0 mi Calm Calm - N/A   Clear
6:35 AM 48.2 °F 44.6 °F 87% 30.21 in 10.0 mi ESE 4.6 mph - N/A   Clear
6:55 AM 48.2 °F 44.6 °F 87% 30.21 in 10.0 mi SE 3.5 mph - N/A   Clear
7:15 AM 50.0 °F 46.4 °F 87% 30.22 in 10.0 mi SE 3.5 mph - N/A   Clear
7:35 AM 50.0 °F 46.4 °F 87% 30.22 in 10.0 mi SE 3.5 mph - N/A   Clear
7:55 AM 51.8 °F 48.2 °F 88% 30.22 in 10.0 mi SE 4.6 mph - N/A   Clear
8:15 AM 57.2 °F 46.4 °F 67% 30.22 in 10.0 mi ESE 4.6 mph - N/A   Clear
8:35 AM 57.2 °F 48.2 °F 72% 30.23 in 10.0 mi Calm Calm - N/A   Clear
8:55 AM 60.8 °F 48.2 °F 63% 30.22 in 10.0 mi East 3.5 mph - N/A   Clear
9:15 AM 62.6 °F 48.2 °F 59% 30.22 in 10.0 mi ESE 4.6 mph - N/A   Clear
9:35 AM 62.6 °F 50.0 °F 63% 30.21 in 10.0 mi ESE 4.6 mph - N/A   Clear
9:55 AM 64.4 °F 51.8 °F 64% 30.22 in 10.0 mi ESE 4.6 mph - N/A   Clear
10:15 AM 66.2 °F 51.8 °F 60% 30.21 in 10.0 mi East 4.6 mph - N/A   Clear
10:35 AM 69.8 °F 51.8 °F 53% 30.21 in 10.0 mi SE 4.6 mph - N/A   Clear
10:55 AM 71.6 °F 51.8 °F 50% 30.20 in 10.0 mi SSE 5.8 mph - N/A   Clear
11:15 AM 69.8 °F 51.8 °F 53% 30.20 in 10.0 mi ESE 4.6 mph - N/A   Clear
11:35 AM 71.6 °F 51.8 °F 50% 30.20 in 10.0 mi SE 5.8 mph - N/A   Clear
11:55 AM 73.4 °F 51.8 °F 47% 30.19 in 10.0 mi ESE 5.8 mph - N/A   Clear
12:15 PM 75.2 °F 51.8 °F 44% 30.18 in 10.0 mi SE 8.1 mph - N/A   Clear
12:35 PM 75.2 °F 50.0 °F 41% 30.17 in 10.0 mi East 8.1 mph - N/A   Clear
12:55 PM 77.0 °F 48.2 °F 36% 30.17 in 10.0 mi SSE 11.5 mph 18.4 mph N/A   Clear
1:15 PM 77.0 °F 48.2 °F 36% 30.17 in 10.0 mi SSE 10.4 mph 16.1 mph N/A   Clear
1:35 PM 77.0 °F 48.2 °F 36% 30.16 in 10.0 mi SE 10.4 mph 16.1 mph N/A   Clear
1:55 PM 78.8 °F 48.2 °F 34% 30.15 in 10.0 mi SE 11.5 mph 18.4 mph N/A   Clear
2:15 PM 78.8 °F 48.2 °F 34% 30.14 in 10.0 mi SE 9.2 mph 17.3 mph N/A   Clear
2:35 PM 78.8 °F 48.2 °F 34% 30.13 in 10.0 mi ESE 8.1 mph 16.1 mph N/A   Clear
2:55 PM 77.0 °F 48.2 °F 36% 30.13 in 10.0 mi SE 10.4 mph - N/A   Clear
3:15 PM 78.8 °F 48.2 °F 34% 30.12 in 10.0 mi ESE 9.2 mph - N/A   Clear
3:35 PM 78.8 °F 48.2 °F 34% 30.12 in 10.0 mi ESE 9.2 mph - N/A   Clear
3:55 PM 78.8 °F 48.2 °F 34% 30.11 in 10.0 mi ESE 10.4 mph - N/A   Clear
4:15 PM 78.8 °F 48.2 °F 34% 30.11 in 10.0 mi SE 12.7 mph 16.1 mph N/A   Clear
4:35 PM 78.8 °F 46.4 °F 32% 30.10 in 10.0 mi SE 11.5 mph 16.1 mph N/A   Clear
4:55 PM 78.8 °F 44.6 °F 30% 30.09 in 10.0 mi SE 9.2 mph 16.1 mph N/A   Clear
5:15 PM 77.0 °F 44.6 °F 32% 30.09 in 10.0 mi SE 11.5 mph 16.1 mph N/A   Clear
5:35 PM 77.0 °F 44.6 °F 32% 30.09 in 10.0 mi SE 10.4 mph 16.1 mph N/A   Clear
5:55 PM 75.2 °F 46.4 °F 36% 30.09 in 10.0 mi ESE 6.9 mph - N/A   Clear
6:15 PM 75.2 °F 46.4 °F 36% 30.08 in 10.0 mi ESE 5.8 mph - N/A   Clear
6:35 PM 75.2 °F 48.2 °F 38% 30.08 in 10.0 mi ESE 4.6 mph - N/A   Clear
6:55 PM 73.4 °F 50.0 °F 44% 30.07 in 10.0 mi SE 4.6 mph - N/A   Clear
7:15 PM 71.6 °F 51.8 °F 50% 30.07 in 10.0 mi ESE 3.5 mph - N/A   Clear
7:35 PM 71.6 °F 51.8 °F 50% 30.07 in 10.0 mi ESE 5.8 mph - N/A   Clear
7:55 PM 69.8 °F 51.8 °F 53% 30.07 in 10.0 mi SE 6.9 mph - N/A   Clear
8:15 PM 69.8 °F 51.8 °F 53% 30.07 in 10.0 mi SE 6.9 mph - N/A   Clear
8:35 PM 68.0 °F 51.8 °F 56% 30.07 in 10.0 mi SE 5.8 mph - N/A   Clear
8:55 PM 66.2 °F 50.0 °F 56% 30.07 in 10.0 mi SE 8.1 mph - N/A   Clear
9:15 PM 66.2 °F 50.0 °F 56% 30.07 in 10.0 mi SE 9.2 mph - N/A   Clear
9:35 PM 66.2 °F 48.2 °F 52% 30.07 in 10.0 mi SE 6.9 mph - N/A   Clear
9:55 PM 64.4 °F 46.4 °F 52% 30.06 in 10.0 mi SE 8.1 mph - N/A   Clear
10:15 PM 64.4 °F 46.4 °F 52% 30.07 in 10.0 mi SE 6.9 mph - N/A   Clear
10:35 PM 64.4 °F 46.4 °F 52% 30.07 in 10.0 mi ESE 5.8 mph - N/A   Clear
10:55 PM 62.6 °F 46.4 °F 55% 30.06 in 10.0 mi SE 6.9 mph - N/A   Clear
11:15 PM 62.6 °F 46.4 °F 55% 30.05 in 10.0 mi SE 8.1 mph - N/A   Clear
11:35 PM 62.6 °F 46.4 °F 55% 30.05 in 10.0 mi SE 8.1 mph - N/A   Clear
11:55 PM 62.6 °F 48.2 °F 59% 30.05 in 10.0 mi SE 9.2 mph - N/A   Clear